Regional Weather Roundup
Issued by NWS

Home | Current Version | Previous Version | Text Only | Print | Product List | Glossary Off
Versions: 1 2 3 4 5 6 7 8 9 10 11 12 13 14 15 16 17 18 19 20 21 22 23 24 25 26 27 28 29 30 31 32 33 34 35 36 37 38 39 40 41 42 43 44 45 46 47 48 49 50

000
ASUS43 KLSX 191857
RWRMO

WEATHER SUMMARY FOR MISSOURI
NATIONAL WEATHER SERVICE SPRINGFIELD MO
100 PM CST FRI JAN 19 2018

NOTE: "FAIR" INDICATES FEW OR NO CLOUDS BELOW 12,000 FEET WITH NO
       SIGNIFICANT WEATHER AND/OR OBSTRUCTIONS TO VISIBILITY.
       CURRENT SKY AND/OR WEATHER CONDITIONS ARE NOT AVAILABLE FOR
       CHILLICOTHE AND FARMINGTON.

MOZ001>031-035>038-043-044-053-054-192000-
...NORTHERN AND WESTERN MISSOURI...

CITY           SKY/WX    TMP DP  RH WIND       PRES   REMARKS
KANSAS CTY INT CLOUDY    46  24  42 S14       29.85F
LEE`S SUMMIT   CLOUDY    46  25  43 S18       29.88F
ST JOSEPH      CLOUDY    44  27  51 S15       29.82F
CHILLICOTHE      N/A     44  24  45 S16G24    29.85F

$$
MOZ066>068-077>081-088>096-101>105-192000-
...SOUTHWEST MISSOURI...

CITY           SKY/WX    TMP DP  RH WIND       PRES   REMARKS
SPRINGFIELD    SUNNY     50  28  42 S16       29.99F
JOPLIN         CLOUDY    49  26  41 S21G28    29.98F

$$
MOZ032>034-039>042-045>050-055>058-069>072-192000-
...CENTRAL MISSOURI...

CITY           SKY/WX    TMP DP  RH WIND       PRES   REMARKS
COLUMBIA       NOT AVBL
JEFFERSON CITY CLOUDY    52  23  32 S12G17    29.96F
ROLLA          SUNNY     51  22  31 SW20G29   29.99F
SEDALIA        CLOUDY    50  27  40 SW21G32   29.93F
WARRENSBURG    CLOUDY    45  27  49 S15G22    29.92F

$$
MOZ051-052-059>065-192000-
...EAST CENTRAL MISSOURI...

CITY           SKY/WX    TMP DP  RH WIND       PRES   REMARKS
ST LOUIS INTL  CLOUDY    54  19  25 S17       29.97F

$$
MOZ072>076-082>087-097>100-106>115-192000-
...SOUTH CENTRAL AND SOUTHEAST MISSOURI...

CITY           SKY/WX    TMP DP  RH WIND       PRES   REMARKS
CAPE GIRARDEAU FAIR      36  24  62 S9        30.14F WCI  29
POPLAR BLUFF   FAIR      41  24  51 SW15      30.13F
WEST PLAINS    SUNNY     49  23  36 S10       30.06F

$$


USA.gov is the U.S. government's official web portal to all federal, state and local government web resources and services.